PDT,Max TemperatureF,Mean TemperatureF,Min TemperatureF,Max Dew PointF,MeanDew PointF,Min DewpointF,Max Humidity, Mean Humidity, Min Humidity, Max Sea Level PressureIn, Mean Sea Level PressureIn, Min Sea Level PressureIn, Max VisibilityMiles, Mean VisibilityMiles, Min VisibilityMiles, Max Wind SpeedMPH, Mean Wind SpeedMPH, Max Gust SpeedMPH,PrecipitationIn, CloudCover, Events, WindDirDegrees
2012-9-1,94,80,65,59,53,43,78,51,23,29.93,29.89,29.86,10,10,9,10,2,18,0.00,0,,269
2012-9-2,93,77,60,57,51,46,69,45,21,29.92,29.89,29.84,10,10,10,12,2,16,0.00,0,,234
2012-9-3,95,80,64,62,56,48,78,51,23,29.96,29.91,29.87,10,10,9,10,2,20,0.00,0,,239
2012-9-4,99,85,70,62,57,45,73,45,17,29.99,29.94,29.87,10,10,10,12,2,15,0.00,0,,249
2012-9-5,92,83,74,63,57,41,68,43,18,29.96,29.93,29.89,10,10,10,9,1,18,T,2,Rain,182
2012-9-6,91,82,72,66,59,53,84,57,29,29.98,29.93,29.89,10,10,9,12,4,17,0.00,0,,215
2012-9-7,91,81,71,64,60,55,73,54,34,30.01,29.96,29.91,10,10,10,10,3,15,0.00,0,,231
2012-9-8,90,81,71,63,60,57,61,50,38,29.94,29.89,29.81,10,10,10,10,3,15,0.00,0,,201
2012-9-9,96,84,72,66,62,61,73,53,33,29.91,29.84,29.76,10,10,9,9,2,,0.00,0,,201
2012-9-10,91,83,75,67,65,63,69,57,44,29.89,29.85,29.82,10,10,10,12,4,29,0.00,2,,212
2012-9-11,82,78,73,68,66,64,79,69,58,29.98,29.91,29.84,10,10,8,12,4,20,0.00,5,,196
2012-9-12,89,81,72,66,65,64,79,63,46,30.01,29.97,29.91,10,9,7,10,2,15,0.00,4,,280
2012-9-13,96,84,71,66,64,62,79,59,38,30.02,29.97,29.88,10,8,4,10,3,15,0.00,3,,255
2012-9-14,108,88,68,64,57,47,78,46,14,29.97,29.93,29.87,10,10,8,12,2,20,0.00,0,,276
2012-9-15,105,88,71,57,48,39,54,33,11,29.98,29.93,29.88,10,10,9,12,3,17,0.00,0,,230
2012-9-16,89,80,70,66,62,55,73,58,43,30.03,29.97,29.94,10,10,8,10,3,20,0.00,1,,215
2012-9-17,86,79,71,64,62,58,79,60,40,30.03,29.97,29.91,10,9,6,9,2,17,0.00,2,,228
2012-9-18,90,78,65,63,59,48,81,55,28,30.01,29.97,29.91,10,8,3,10,2,13,0.00,2,,196
2012-9-19,93,79,65,63,57,47,81,51,21,29.96,29.93,29.87,10,10,10,10,2,,0.00,0,,219
2012-9-20,94,81,67,64,60,54,81,55,28,29.94,29.89,29.83,10,10,9,9,2,15,0.00,0,,196
2012-9-21,94,81,68,64,62,60,81,60,38,29.91,29.87,29.81,10,9,7,12,2,16,0.00,0,,190
2012-9-22,97,83,69,66,63,57,90,59,27,29.93,29.89,29.84,10,8,2,9,2,13,0.00,2,,205
2012-9-23,99,85,71,63,59,52,68,46,24,29.94,29.90,29.87,10,10,7,12,2,15,0.00,0,,254
2012-9-24,87,79,70,62,59,54,70,51,31,29.97,29.92,29.88,10,10,10,12,4,16,0.00,0,,184
2012-9-25,82,74,66,61,59,56,81,62,42,29.92,29.88,29.83,10,9,7,10,2,14,0.00,2,,192
2012-9-26,84,75,65,60,59,57,78,61,43,29.89,29.85,29.80,10,10,6,13,2,17,0.00,2,,251
2012-9-27,86,76,65,62,61,58,84,66,48,29.92,29.88,29.83,10,7,4,10,2,20,0.00,2,,202
2012-9-28,93,80,66,62,59,55,81,56,30,29.93,29.88,29.81,10,8,4,10,3,17,0.00,0,,264
2012-9-29,96,81,66,61,55,45,81,49,17,29.96,29.91,29.87,10,10,9,10,2,15,0.00,0,,258
2012-9-30,99,83,66,61,57,52,73,48,22,29.96,29.91,29.85,10,10,10,9,2,21,0.00,0,,236